Погода в Карлсхамне

Швеция     56°10′39″N   14°51′25″E
темп.,
°C
ветер,
м/с
пор.,
м/с
влажн.,
%
обл.,
%
осадки,
мм/ч
давл.,
гПа
погр.,
м
17 июня, чт
чт1723:00+10ю128912 0.0 102011
02:00+10вюв119273 0.0 102011
05:00+10в228774 0.0 101946
08:00+17вюв3566100 0.0 1019361
11:00+22юв46495 0.0 1019675
14:00+23юв56465 0.0 1019825
17:00+22юв46445 0.0 1018577
20:00+20вюв37585 0.0 1017273
18 июня, пт
пт1823:00+15вюв26835 0.0 1017114
02:00+15вюв23913 0.0 101753
05:00+16юв299459 0.0 1016209
08:00+22ю37680 0.0 1016379
11:00+25ююв47550 0.0 1016561
14:00+27ююв46490 0.0 1016725
17:00+27ю45480 0.0 1015709
20:00+23юв25660 0.0 1015205
19 июня, сб
сб1923:00+17вюв23890 0.0 101644
02:00+16вюв22870 0.0 101521
05:00+16вюв24880 0.0 101574
08:00+22ююв36660 0.0 1014311
11:00+26ююв47540 0.0 1014558
14:00+28ююв58470 0.0 1014882
17:00+26ю4856100 0.0 1013592
20:00+23ююв25735 0.1 1012229
20 июня, вс
вс2023:00+19зюз2892100 0.0 1013195
02:00+15зюз27955 0.0 1014135
05:00+13сз249815 0.0 1013105
08:00+19зюз23660 0.0 1013395
11:00+25ю34370 0.0 1013761
14:00+27ю45346 0.0 1012908
17:00+25юв454420 0.0 1011541
20:00+21вюв35675 0.0 1010229
21 июня, пн
пн2123:00+18в29885 0.0 1009208
02:00+17в25924 0.0 1009141
05:00+17в2995100 0.0 1007205
08:00+21юв487499 0.0 1007382
11:00+24ююв5864100 0.0 1006663
14:00+25ююв465962 0.1 1006918
17:00+26ююз445520 0.1 10061116
20:00+23юз355468 0.1 1006715